GW2092 Weather Reports


time (UTC)temp
F
wind
direction
speed
knots
gust
knots
rain 1hr
in
rain 24hr
in
rain mn
in
humidity
%
barometer
mb
20260906103054 73 0 0.0 0.0 0.00 0.00 0.00 82 1014.9
20260906101553 73 0 0.0 0.0 0.00 0.00 0.00 82 1014.8
20260906100045 73 0 0.0 0.0 0.00 0.00 0.00 82 1014.7
20260906094546 73 0 0.0 0.0 0.00 0.00 0.00 81 1014.7
20260906093113 73 0 0.0 0.0 0.00 0.00 0.00 81 1014.6
20260906091550 73 0 0.0 0.0 0.00 0.00 0.00 81 1014.5
20260906090050 73 0 0.0 0.0 0.00 0.00 0.00 80 1014.4
20260906084545 73 0 0.0 0.0 0.00 0.00 0.00 80 1014.1
20260906083053 74 0 0.0 0.0 0.00 0.00 0.00 79 1014.0
20260906081551 74 0 0.0 0.0 0.00 0.00 0.00 79 1014.1
20260906080047 74 0 0.0 0.0 0.00 0.00 0.00 78 1014.1
20260906074556 75 0 0.0 0.0 0.00 0.00 0.00 78 1014.2
20260906073056 75 0 0.0 0.0 0.00 0.00 0.00 77 1014.4
20260906071552 76 0 0.0 0.0 0.00 0.00 0.00 77 1014.4
20260906070045 76 0 0.0 0.0 0.00 0.00 0.00 76 1014.2
20260906064554 76 0 0.0 0.0 0.00 0.00 0.00 76 1014.3
20260906063046 77 0 0.0 0.0 0.00 0.00 0.00 74 1014.2
20260906061559 77 0 0.0 0.0 0.00 0.00 0.00 73 1014.3
20260906060053 77 0 0.0 0.0 0.00 0.00 0.00 72 1014.4
20260906054601 78 0 0.0 0.0 0.00 0.00 0.00 71 1014.4
20260906053047 79 0 0.0 0.0 0.00 0.00 0.00 70 1014.5
20260906051553 79 0 0.0 0.0 0.00 0.00 0.00 69 1014.5
20260906050112 79 0 0.0 0.0 0.00 0.00 0.00 69 1014.4
20260906044549 80 0 0.0 0.0 0.00 0.00 0.00 69 1014.4
20260906043044 80 0 0.0 0.0 0.00 0.00 0.00 68 1014.4
20260906041543 80 0 0.0 0.0 0.00 0.00 0.00 69 1014.4
20260906040050 80 0 0.0 0.0 0.00 0.00 0.00 68 1014.6
20260906034546 81 0 0.0 0.0 0.00 0.00 0.00 67 1014.3
20260906033053 82 0 0.0 0.0 0.00 0.00 0.00 65 1014.1
20260906031547 82 0 0.0 0.0 0.00 0.00 0.00 63 1014.0
20260906030045 82 0 0.0 0.0 0.00 0.00 0.00 63 1013.9
20260906024545 83 0 0.0 0.0 0.00 0.00 0.00 62 1013.8
20260906023048 83 0 0.0 0.0 0.00 0.00 0.00 61 1013.7
20260906021552 84 0 0.0 0.0 0.00 0.00 0.00 60 1013.6
20260906020052 85 0 0.0 0.0 0.00 0.00 0.00 58 1013.3
20260906014554 85 0 0.0 0.0 0.00 0.00 0.00 57 1013.3
20260906013049 86 0 0.0 0.0 0.00 0.00 0.00 55 1013.1
20260906011544 88 0 0.0 0.0 0.00 0.00 0.00 53 1013.0
20260906010046 89 0 0.0 0.0 0.00 0.00 0.00 52 1012.8
20260906004549 91 0 0.0 0.0 0.00 0.00 0.00 50 1012.7
20260906003047 93 0 0.0 0.0 0.00 0.00 0.00 47 1012.7
20260906001554 95 0 0.0 0.0 0.00 0.00 0.00 44 1012.8
20260906000057 96 0 0.0 0.0 0.00 0.00 0.00 41 1012.8
20260905234606 97 0 0.0 0.9 0.00 0.00 0.00 39 1012.8
20260905233056 98 0 0.0 0.9 0.00 0.00 0.00 38 1012.8
20260905231556 98 0 0.0 0.9 0.00 0.00 0.00 38 1012.8
20260905230109 100 0 0.0 0.9 0.00 0.00 0.00 37 1012.7
20260905224544 101 219 0.0 0.9 0.00 0.00 0.00 36 1012.7
20260905223054 101 0 0.0 0.9 0.00 0.00 0.00 36 1012.7
20260905221554 100 0 0.0 0.0 0.00 0.00 0.00 37 1012.8
20260905220045 101 0 0.0 0.9 0.00 0.00 0.00 36 1013.0
20260905214554 102 219 0.0 2.6 0.00 0.00 0.00 36 1013.0
20260905213049 103 77 0.0 5.2 0.00 0.00 0.00 36 1013.2
20260905211551 105 345 0.0 2.6 0.00 0.00 0.00 34 1013.3
20260905210052 105 210 0.0 1.7 0.00 0.00 0.00 34 1013.5
20260905204551 103 0 0.0 3.5 0.00 0.00 0.00 35 1013.7
20260905203054 104 207 0.0 2.6 0.00 0.00 0.00 34 1013.9
20260905201545 104 0 0.0 2.6 0.00 0.00 0.00 35 1014.3
20260905200046 103 161 0.9 6.1 0.00 0.00 0.00 36 1014.5
20260905194552 106 0 0.0 1.7 0.00 0.00 0.00 35 1014.6
20260905193105 102 65 0.0 2.6 0.00 0.00 0.00 37 1014.9
20260905191545 102 0 0.0 3.5 0.00 0.00 0.00 37 1015.1
20260905190055 103 82 0.0 3.5 0.00 0.00 0.00 38 1015.2
20260905184551 105 208 0.0 1.7 0.00 0.00 0.00 36 1015.3
20260905183059 103 141 0.0 2.6 0.00 0.00 0.00 36 1015.5
20260905181554 103 0 0.0 3.5 0.00 0.00 0.00 38 1015.8
20260905180049 100 312 0.0 1.7 0.00 0.00 0.00 40 1016.2
20260905174548 100 0 0.0 0.9 0.00 0.00 0.00 41 1016.3
20260905173055 101 82 0.0 1.7 0.00 0.00 0.00 40 1016.4
20260905171554 102 0 0.0 0.9 0.00 0.00 0.00 39 1016.6
20260905170046 102 0 0.0 0.9 0.00 0.00 0.00 42 1016.8
20260905164554 101 0 0.0 0.9 0.00 0.00 0.00 43 1016.8
20260905163056 99 0 0.0 2.6 0.00 0.00 0.00 45 1016.9
20260905161546 99 0 0.0 1.7 0.00 0.00 0.00 44 1017.1
20260905160055 98 0 0.0 2.6 0.00 0.00 0.00 46 1017.1
20260905154604 98 42 0.0 1.7 0.00 0.00 0.00 46 1017.0
20260905153052 97 191 0.0 2.6 0.00 0.00 0.00 48 1017.0
20260905151549 95 0 0.0 1.7 0.00 0.00 0.00 51 1017.0
20260905150108 93 0 0.0 1.7 0.00 0.00 0.00 54 1016.7
20260905144554 91 174 0.0 1.7 0.00 0.00 0.00 56 1016.7
20260905143052 90 0 0.0 2.6 0.00 0.00 0.00 58 1016.8
20260905141556 87 0 0.0 2.6 0.00 0.00 0.00 61 1016.8
20260905140058 86 202 0.0 0.9 0.00 0.00 0.00 64 1016.6
20260905134553 83 0 0.0 0.9 0.00 0.00 0.00 70 1016.6
20260905133045 80 0 0.0 0.9 0.00 0.00 0.00 74 1016.5
20260905131554 78 0 0.0 0.9 0.00 0.00 0.00 76 1016.4
20260905130050 76 0 0.0 0.0 0.00 0.00 0.00 79 1016.0
20260905124547 75 0 0.0 0.0 0.00 0.00 0.00 83 1016.0
20260905123048 73 0 0.0 0.0 0.00 0.00 0.00 84 1015.8
20260905121557 73 0 0.0 0.0 0.00 0.00 0.00 85 1016.0
20260905120046 72 0 0.0 0.0 0.00 0.00 0.00 85 1016.0
20260905114546 72 0 0.0 0.0 0.00 0.00 0.00 85 1015.8
20260905113104 72 0 0.0 0.0 0.00 0.00 0.00 84 1015.7
20260905111551 72 0 0.0 0.0 0.00 0.00 0.00 84 1015.6
20260905110046 72 0 0.0 0.0 0.00 0.00 0.00 84 1015.6
20260905104545 73 0 0.0 0.0 0.00 0.00 0.00 83 1015.6